This demonstration page uses our WeatherBlox Daily Observations layout. Learn more.

Left ArrowRight Arrow

Hourly Observations for September 20, 2022

Temp ( °F °C ) Dew Point ( °F °C ) Humidity (%) Winds ( mph kmh ) Pressure ( in mb ) Visibility ( mi km ) Precip ( " mm )
12:20 am 00:20 Clear with Mist and Fog 66 18.9 64 17.8 93 93 Calm 30.02 1017 2 3 0.00 0.00
12:33 am 00:33 Clear with Mist and Fog 65 18.3 64 17.8 97 97 Calm 30.01 1016 3 4 0.00 0.00
12:45 am 00:45 Clear with Mist and Fog 65 18.3 63 17.2 93 93 Calm 30.02 1017 5 8 0.00 0.00
12:53 am 00:53 Clear with Mist and Fog 63 17.2 62 16.7 97 97 Calm 30.01 1016 2 3 0.00 0.00
1:00 am 01:00 Clear with Mist and Fog 63 17.2 61 16.1 93 93 Calm 30.02 1017 3 5 0.00 0.00
1:40 am 01:40 Partly Cloudy 63 17.2 61 16.1 93 93 Calm 30.02 1017 7 11 0.00 0.00
1:47 am 01:47 Mostly Clear with Mist and Fog 63 17 63 17 100 100 Calm 30.02 1017 1 1 0.00 0.00
1:53 am 01:53 Mostly Clear with Fog 63 17.2 62 16.7 97 97 Calm 30.01 1016 0 0 0.00 0.00
2:34 am 02:34 Mostly Cloudy with Mist and Fog 63 17.2 62 16.7 97 97 Calm 30.03 1017 3 5 0.00 0.00
2:42 am 02:42 Partly Cloudy with Mist and Fog 62 16.7 61 16.1 96 96 Calm 30.03 1017 6 10 0.00 0.00
2:53 am 02:53 Mostly Clear with Mist and Fog 62 16.7 61 16.1 96 96 Calm 30.03 1017 4 6 0.00 0.00
3:09 am 03:09 Clear with Mist and Fog 61 16.1 60 15.6 97 97 Calm 30.04 1017 2 3 0.00 0.00
3:20 am 03:20 Mostly Clear with Mist and Fog 62 16.7 61 16.1 96 96 Calm 30.03 1017 2 2 0.00 0.00
3:31 am 03:31 Clear with Mist and Fog 62 16.7 61 16.1 96 96 Calm 30.03 1017 3 5 0.00 0.00
3:45 am 03:45 Mostly Clear with Mist and Fog 61 16.1 60 15.6 97 97 Calm 30.04 1017 3 4 0.00 0.00
3:53 am 03:53 Partly Cloudy with Mist and Fog 61 16.1 60 15.6 97 97 Calm 30.03 1017 3 5 0.00 0.00
3:57 am 03:57 Mostly Clear with Mist and Fog 61 16.1 60 15.6 97 97 Calm 30.04 1017 1 2 0.00 0.00
4:01 am 04:01 Mostly Clear with Fog 62 16.7 61 16.1 96 96 Calm 30.03 1017 0 0 0.00 0.00
4:53 am 04:53 Mostly Clear with Fog 60 15.6 59 15 96 96 Calm 30.03 1017 1 1 0.00 0.00
5:08 am 05:08 Mostly Cloudy with Mist and Fog 60 15.6 59 15 96 96 Calm 30.05 1017 3 5 0.00 0.00
5:32 am 05:32 Partly Cloudy with Mist and Fog 59 15 58 14.4 96 96 Calm 30.04 1017 4 6 0.00 0.00
5:38 am 05:38 Mostly Cloudy with Mist and Fog 59 15 58 14.4 96 96 Calm 30.04 1017 3 4 0.00 0.00
5:50 am 05:50 Mostly Clear with Fog 57 14 57 14 100 100 Calm 30.04 1017 0 0 0.00 0.00
5:53 am 05:53 Mostly Clear with Fog 59 15 57 13.9 93 93 Calm 30.03 1017 0 0 0.00 0.00
6:53 am 06:53 Mostly Clear with Fog 59 15 58 14.4 96 96 Calm 30.04 1017 0 0 0.00 0.00
7:03 am 07:03 Mostly Clear with Mist and Fog 59 15 58 14.4 96 96 Calm 30.05 1018 1 1 0.00 0.00
7:21 am 07:21 Mostly Clear with Fog 58 14.4 57 13.9 97 97 Calm 30.06 1018 0 0 0.00 0.00
7:32 am 07:32 Partly Cloudy with Fog 57 13.9 57 13.9 100 100 Calm 30.06 1018 0 0 0.00 0.00
7:49 am 07:49 Partly Cloudy with Fog 57 14 57 14 100 100 Calm 30.06 1018 0 0 0.00 0.00
7:53 am 07:53 Partly Cloudy with Fog 58 14.4 58 14.4 100 100 Calm 30.05 1018 0 0 0.00 0.00
8:36 am 08:36 Partly Cloudy with Fog 63 17.2 62 16.7 97 97 Calm 30.05 1018 1 1 0.00 0.00
8:47 am 08:47 Mostly Cloudy with Mist and Fog 64 18 63 17 94 94 Calm 30.06 1018 3 5 0.00 0.00
8:53 am 08:53 Partly Cloudy with Mist and Fog 64 17.8 63 17.2 96 96 WNW 3 6 30.06 1018 6 10 0.00 0.00
9:53 am 09:53 Sunny 70 21.1 65 18.3 84 84 Calm 30.07 1018 8 13 0.00 0.00
10:53 am 10:53 Sunny 76 24.4 66 18.9 71 71 ENE 3 6 30.07 1018 10 16 0.00 0.00
11:53 am 11:53 Sunny 80 26.7 61 16.1 52 52 Calm 30.06 1018 10 16 0.00 0.00
12:53 pm 12:53 Sunny 83 28.3 62 16.7 49 49 Calm 30.05 1018 10 16 0.00 0.00
1:53 pm 13:53 Sunny 85 29.4 64 17.8 50 50 Calm 30.04 1017 10 16 0.00 0.00
2:53 pm 14:53 Sunny 85 29.4 60 15.6 43 43 Calm 30.03 1017 10 16 0.00 0.00
3:53 pm 15:53 Sunny 86 30 61 16.1 43 43 Calm 30.01 1016 10 16 0.00 0.00
4:53 pm 16:53 Sunny 84 28.9 63 17.2 49 49 NNW 3 6 30.01 1016 10 16 0.00 0.00
5:53 pm 17:53 Sunny 85 29.4 63 17.2 48 48 NE 3 6 30.00 1016 10 16 0.00 0.00
6:53 pm 18:53 Sunny 76 24.4 68 20 77 77 Calm 30.00 1016 10 16 0.00 0.00
7:53 pm 19:53 Clear 71 21.7 67 19.4 87 87 Calm 30.00 1016 10 16 0.00 0.00
8:53 pm 20:53 Clear 68 20 64 17.8 87 87 Calm 30.00 1016 10 16 0.00 0.00
9:53 pm 21:53 Clear 66 18.9 63 17.2 90 90 Calm 29.99 1016 10 16 0.00 0.00
10:53 pm 22:53 Clear 66 18.9 63 17.2 90 90 Calm 29.99 1016 10 16 0.00 0.00
11:53 pm 23:53 Clear 65 18.3 63 17.2 93 93 Calm 29.98 1015 10 16 0.00 0.00

Powered by AerisWeather